GW4891 Weather Reports


time (UTC)temp
F
wind
direction
speed
knots
gust
knots
rain 1hr
in
rain 24hr
in
rain mn
in
humidity
%
barometer
mb
20260508043903 38 114 0.0 0.0 0.00 0.00 0.00 32 1019.7
20260508043401 38 98 0.0 0.0 0.00 0.00 0.00 31 1019.6
20260508042857 41 74 0.0 1.7 0.00 0.00 0.00 29 1019.6
20260508042354 42 98 0.9 0.9 0.00 0.00 0.00 28 1019.9
20260508041851 41 88 0.0 0.0 0.00 0.00 0.00 28 1019.7
20260508041348 41 98 0.0 0.9 0.00 0.00 0.00 29 1019.6
20260508040844 42 114 0.0 0.9 0.00 0.00 0.00 29 1019.6
20260508040342 41 49 0.9 1.7 0.00 0.00 0.00 29 1019.5
20260508035839 41 91 0.9 0.9 0.00 0.00 0.00 29 1019.5
20260508035336 42 85 0.9 1.7 0.00 0.00 0.00 29 1019.5
20260508034833 42 76 0.9 1.7 0.00 0.00 0.00 28 1019.4
20260508034330 42 103 0.9 1.7 0.00 0.00 0.00 28 1019.2
20260508033827 42 84 0.9 0.9 0.00 0.00 0.00 28 1019.5
20260508033325 42 102 0.0 1.7 0.00 0.00 0.00 28 1019.2
20260508032822 42 62 1.7 1.7 0.00 0.00 0.00 28 1019.1
20260508032319 42 59 1.7 1.7 0.00 0.00 0.00 27 1019.0
20260508031815 43 96 0.0 0.0 0.00 0.00 0.00 27 1019.0
20260508031312 43 98 0.0 0.0 0.00 0.00 0.00 26 1018.9
20260508030808 43 87 0.0 0.0 0.00 0.00 0.00 26 1018.7
20260508030306 44 83 0.0 0.0 0.00 0.00 0.00 25 1018.7
20260508025802 45 122 0.0 0.0 0.00 0.00 0.00 24 1018.5
20260508025300 46 88 0.0 0.0 0.00 0.00 0.00 23 1018.6
20260508024755 48 112 0.0 0.0 0.00 0.00 0.00 23 1018.6
20260508024253 49 114 0.0 0.0 0.00 0.00 0.00 22 1018.5
20260508023750 50 117 0.0 0.0 0.00 0.00 0.00 21 1018.4
20260508023247 51 116 0.0 0.0 0.00 0.00 0.00 20 1018.5
20260508022742 53 122 0.0 0.0 0.00 0.00 0.00 18 1018.3
20260508022239 54 118 0.0 0.0 0.00 0.00 0.00 18 1018.1
20260508021736 55 118 0.0 0.0 0.00 0.00 0.00 17 1018.1
20260508021231 56 129 0.0 0.0 0.00 0.00 0.00 17 1018.1
20260508020729 57 128 0.0 0.9 0.00 0.00 0.00 16 1017.9
20260508020226 57 126 0.0 0.9 0.00 0.00 0.00 16 1018.3
20260508015723 58 123 0.0 0.0 0.00 0.00 0.00 16 1017.8
20260508015220 59 112 0.0 0.9 0.00 0.00 0.00 15 1018.1
20260508014717 60 115 0.0 0.9 0.00 0.00 0.00 15 1017.9
20260508014214 60 112 0.0 0.9 0.00 0.00 0.00 15 1017.6
20260508013709 61 134 0.0 1.7 0.00 0.00 0.00 15 1017.6
20260508013206 61 139 0.9 2.6 0.00 0.00 0.00 15 1017.6
20260508012704 62 111 0.0 1.7 0.00 0.00 0.00 15 1017.5
20260508012200 62 158 0.9 1.7 0.00 0.00 0.00 14 1017.6
20260508011659 63 131 0.9 2.6 0.00 0.00 0.00 14 1017.4
20260508011156 63 103 0.0 5.2 0.00 0.00 0.00 14 1017.4
20260508010653 63 115 0.9 2.6 0.00 0.00 0.00 15 1017.4
20260508010151 64 148 1.7 2.6 0.00 0.00 0.00 13 1017.3
20260508005648 64 79 0.9 2.6 0.00 0.00 0.00 13 1017.4
20260508005144 64 212 1.7 2.6 0.00 0.00 0.00 13 1017.3
20260508004640 65 116 1.7 1.7 0.00 0.00 0.00 12 1017.3
20260508004136 65 155 0.0 1.7 0.00 0.00 0.00 12 1017.4
20260508003632 65 180 2.6 3.5 0.00 0.00 0.00 12 1017.4
20260508003131 66 128 0.9 6.1 0.00 0.00 0.00 13 1017.6
20260508002627 67 168 1.7 2.6 0.00 0.00 0.00 12 1017.4
20260508002125 66 253 0.9 2.6 0.00 0.00 0.00 12 1017.3
20260508001619 67 63 2.6 6.1 0.00 0.00 0.00 12 1017.5
20260508001116 67 134 1.7 2.6 0.00 0.00 0.00 13 1017.4
20260508000612 68 127 0.9 1.7 0.00 0.00 0.00 12 1017.3
20260508000110 68 118 0.0 5.2 0.00 0.00 0.00 13 1017.4
20260507235606 68 175 1.7 5.2 0.00 0.00 0.00 13 1017.5
20260507235103 68 112 1.7 3.5 0.00 0.00 0.00 13 1017.5
20260507234600 69 122 0.9 3.5 0.00 0.00 0.00 13 1017.3
20260507234056 68 148 1.7 3.5 0.00 0.00 0.00 15 1017.4
20260507233553 68 98 0.9 2.6 0.00 0.00 0.00 14 1017.3
20260507233052 68 73 2.6 6.1 0.00 0.00 0.00 14 1017.6
20260507232548 69 106 1.7 3.5 0.00 0.00 0.00 14 1017.6
20260507232045 69 93 0.0 1.7 0.00 0.00 0.00 14 1017.5
20260507231542 69 114 0.9 1.7 0.00 0.00 0.00 14 1017.4
20260507231039 69 42 0.9 2.6 0.00 0.00 0.00 13 1017.4
20260507230535 71 56 3.5 5.2 0.00 0.00 0.00 13 1017.5
20260507230032 71 123 1.7 2.6 0.00 0.00 0.00 13 1017.6
20260507225527 70 146 1.7 2.6 0.00 0.00 0.00 13 1017.6
20260507225023 70 61 1.7 3.5 0.00 0.00 0.00 14 1017.6
20260507224520 70 136 1.7 6.1 0.00 0.00 0.00 14 1017.6
20260507224016 69 159 0.9 2.6 0.00 0.00 0.00 14 1017.8
20260507223513 70 147 3.5 3.5 0.00 0.00 0.00 13 1017.6
20260507223010 70 105 0.9 3.5 0.00 0.00 0.00 14 1017.8
20260507222507 69 48 1.7 7.0 0.00 0.00 0.00 14 1017.9
20260507222003 68 19 6.1 7.0 0.00 0.00 0.00 14 1017.8
20260507221500 70 146 3.5 6.1 0.00 0.00 0.00 13 1017.8
20260507220956 68 118 0.0 6.1 0.00 0.00 0.00 15 1018.0
20260507220454 69 98 1.7 2.6 0.00 0.00 0.00 13 1018.0
20260507215951 68 162 2.6 5.2 0.00 0.00 0.00 13 1017.9
20260507215447 67 86 1.7 3.5 0.00 0.00 0.00 13 1018.0
20260507214945 69 33 5.2 8.7 0.00 0.00 0.00 13 1018.3
20260507214442 69 138 1.7 2.6 0.00 0.00 0.00 14 1018.3
20260507213938 70 140 2.6 5.2 0.00 0.00 0.00 14 1018.1
20260507213434 68 235 1.7 3.5 0.00 0.00 0.00 14 1018.3
20260507212931 70 154 1.7 3.5 0.00 0.00 0.00 12 1018.6
20260507212427 70 15 1.7 5.2 0.00 0.00 0.00 12 1018.6
20260507211924 69 147 0.0 2.6 0.00 0.00 0.00 12 1018.9
20260507211420 68 71 1.7 3.5 0.00 0.00 0.00 12 1018.7
20260507210917 68 198 1.7 6.1 0.00 0.00 0.00 12 1018.9
20260507210414 70 122 0.0 3.5 0.00 0.00 0.00 11 1018.7
20260507205910 71 170 1.7 6.1 0.00 0.00 0.00 12 1018.9
20260507205408 67 137 2.6 2.6 0.00 0.00 0.00 11 1018.9
20260507204904 69 69 2.6 3.5 0.00 0.00 0.00 11 1019.1
20260507204400 68 30 2.6 2.6 0.00 0.00 0.00 12 1019.2
20260507203858 66 19 3.5 6.1 0.00 0.00 0.00 12 1019.5
20260507203356 68 84 0.9 3.5 0.00 0.00 0.00 12 1019.2
20260507202852 68 132 0.9 6.1 0.00 0.00 0.00 12 1019.4
20260507202348 67 31 1.7 5.2 0.00 0.00 0.00 10 1019.5
20260507201845 68 87 2.6 3.5 0.00 0.00 0.00 10 1019.6
20260507201340 69 69 2.6 5.2 0.00 0.00 0.00 10 1019.5
20260507200836 67 207 1.7 6.1 0.00 0.00 0.00 10 1019.6
20260507200332 68 100 0.9 7.0 0.00 0.00 0.00 11 1019.5
20260507195828 65 176 3.5 5.2 0.00 0.00 0.00 13 1020.0
20260507195326 67 342 2.6 7.0 0.00 0.00 0.00 11 1019.9
20260507194823 68 100 3.5 6.1 0.00 0.00 0.00 11 1020.0
20260507194319 65 156 0.9 1.7 0.00 0.00 0.00 12 1020.0
20260507193816 67 29 5.2 6.1 0.00 0.00 0.00 11 1020.0
20260507193313 67 77 1.7 3.5 0.00 0.00 0.00 11 1020.0
20260507192808 65 294 3.5 5.2 0.00 0.00 0.00 11 1020.0
20260507192306 66 187 1.7 2.6 0.00 0.00 0.00 13 1020.0
20260507191802 68 177 3.5 6.1 0.00 0.00 0.00 13 1020.2
20260507191258 68 101 1.7 3.5 0.00 0.00 0.00 13 1020.2
20260507190755 66 144 1.7 5.2 0.00 0.00 0.00 14 1020.2
20260507190254 64 151 3.5 5.2 0.00 0.00 0.00 16 1020.4
20260507185752 65 191 1.7 7.0 0.00 0.00 0.00 15 1020.4
20260507185248 66 227 1.7 3.5 0.00 0.00 0.00 16 1020.6
20260507184746 66 195 4.3 7.0 0.00 0.00 0.00 14 1020.6
20260507184244 64 100 0.0 3.5 0.00 0.00 0.00 15 1020.7
20260507183741 66 204 3.5 5.2 0.00 0.00 0.00 14 1020.7
20260507183238 65 17 3.5 5.2 0.00 0.00 0.00 15 1020.7
20260507182736 63 123 1.7 2.6 0.00 0.00 0.00 14 1020.8
20260507182236 64 62 2.6 7.8 0.00 0.00 0.00 18 1020.8
20260507181733 64 123 1.7 2.6 0.00 0.00 0.00 20 1020.8
20260507181229 64 122 0.0 5.2 0.00 0.00 0.00 20 1021.0
20260507180726 63 120 1.7 6.1 0.00 0.00 0.00 21 1021.1
20260507180223 62 117 1.7 2.6 0.00 0.00 0.00 20 1021.1
20260507175718 62 72 3.5 5.2 0.00 0.00 0.00 19 1021.1
20260507175215 62 51 2.6 3.5 0.00 0.00 0.00 19 1021.6
20260507174713 60 184 1.7 7.0 0.00 0.00 0.00 22 1021.2
20260507174211 61 146 4.3 6.1 0.00 0.00 0.00 22 1021.3
20260507173708 61 249 1.7 2.6 0.00 0.00 0.00 20 1021.6
20260507173204 61 148 2.6 5.2 0.00 0.00 0.00 20 1021.7
20260507172701 59 114 2.6 5.2 0.00 0.00 0.00 22 1021.6
20260507172158 60 51 0.9 2.6 0.00 0.00 0.00 22 1021.6
20260507171658 60 137 2.6 3.5 0.00 0.00 0.00 22 1021.8
20260507171156 60 218 0.9 2.6 0.00 0.00 0.00 22 1021.8
20260507170653 58 125 1.7 2.6 0.00 0.00 0.00 22 1022.1
20260507170150 58 189 1.7 3.5 0.00 0.00 0.00 21 1022.0
20260507165645 58 93 0.9 5.2 0.00 0.00 0.00 23 1022.2
20260507165142 57 118 0.0 0.9 0.00 0.00 0.00 20 1022.3
20260507164637 56 109 1.7 3.5 0.00 0.00 0.00 24 1022.5
20260507164135 56 113 0.9 5.2 0.00 0.00 0.00 25 1022.6
20260507163632 57 34 1.7 2.6 0.00 0.00 0.00 23 1022.5
20260507163130 57 117 0.0 2.6 0.00 0.00 0.00 25 1022.5
20260507162625 55 115 0.9 3.5 0.00 0.00 0.00 26 1022.6
20260507162122 56 86 0.9 3.5 0.00 0.00 0.00 25 1022.7
20260507161618 57 120 0.0 2.6 0.00 0.00 0.00 25 1022.9
20260507161115 56 116 0.9 1.7 0.00 0.00 0.00 26 1022.6
20260507160611 54 104 0.9 2.6 0.00 0.00 0.00 26 1022.7
20260507160108 53 148 1.7 2.6 0.00 0.00 0.00 27 1022.7
20260507155603 55 163 2.6 5.2 0.00 0.00 0.00 26 1022.7
20260507155100 54 189 1.7 2.6 0.00 0.00 0.00 26 1022.7
20260507154557 53 162 1.7 2.6 0.00 0.00 0.00 28 1022.7
20260507154054 53 131 0.9 2.6 0.00 0.00 0.00 28 1022.7
20260507153551 52 138 1.7 2.6 0.00 0.00 0.00 29 1022.7
20260507153047 52 158 1.7 2.6 0.00 0.00 0.00 27 1022.7
20260507152543 52 147 1.7 2.6 0.00 0.00 0.00 28 1022.9
20260507152040 51 115 0.0 1.7 0.00 0.00 0.00 29 1022.8
20260507151536 52 142 0.0 1.7 0.00 0.00 0.00 29 1023.1
20260507151033 50 105 0.0 0.9 0.00 0.00 0.00 30 1022.9
20260507150530 49 76 0.9 1.7 0.00 0.00 0.00 32 1023.1
20260507150027 48 109 1.7 2.6 0.00 0.00 0.00 35 1023.1
20260507145522 49 111 0.0 0.0 0.00 0.00 0.00 32 1022.9
20260507145020 48 128 0.9 0.9 0.00 0.00 0.00 34 1022.9
20260507144516 48 120 0.0 0.9 0.00 0.00 0.00 32 1023.1
20260507144014 47 93 0.9 1.7 0.00 0.00 0.00 38 1023.1
20260507143511 45 107 0.0 0.9 0.00 0.00 0.00 40 1023.2
20260507143008 43 124 0.9 0.9 0.00 0.00 0.00 44 1022.9
20260507142503 42 101 1.7 1.7 0.00 0.00 0.00 46 1023.1
20260507142000 40 113 0.0 0.9 0.00 0.00 0.00 48 1023.2
20260507141456 40 116 0.9 1.7 0.00 0.00 0.00 49 1023.1
20260507140953 40 110 0.0 0.0 0.00 0.00 0.00 50 1023.2
20260507140449 39 114 0.0 0.9 0.00 0.00 0.00 49 1022.8
20260507135947 36 100 0.0 0.9 0.00 0.00 0.00 54 1022.9
20260507135444 34 114 0.9 0.9 0.00 0.00 0.00 57 1022.9
20260507134941 33 66 0.9 1.7 0.00 0.00 0.00 58 1023.3
20260507134438 31 110 0.9 1.7 0.00 0.00 0.00 62 1023.1
20260507133934 31 92 0.0 1.7 0.00 0.00 0.00 62 1023.1
20260507133430 30 75 0.9 1.7 0.00 0.00 0.00 62 1023.3
20260507132929 28 80 0.9 1.7 0.00 0.00 0.00 65 1023.2
20260507132424 27 77 0.9 1.7 0.00 0.00 0.00 68 1023.3
20260507131921 26 53 0.9 1.7 0.00 0.00 0.00 69 1023.3
20260507131418 25 58 1.7 2.6 0.00 0.00 0.00 71 1023.2
20260507130915 24 61 2.6 2.6 0.00 0.00 0.00 73 1023.3
20260507130412 24 52 2.6 3.5 0.00 0.00 0.00 73 1023.2
20260507125911 23 77 0.0 0.9 0.00 0.00 0.00 74 1023.1
20260507125408 21 95 0.0 0.0 0.00 0.00 0.00 81 1023.3
20260507124906 18 107 0.0 0.0 0.00 0.00 0.00 86 1023.2
20260507124401 17 102 0.0 0.0 0.00 0.00 0.00 85 1023.1
20260507123900 17 102 0.0 0.0 0.00 0.00 0.00 85 1023.2
20260507123357 18 108 0.0 0.9 0.00 0.00 0.00 85 1023.1
20260507122853 17 110 0.0 0.0 0.00 0.00 0.00 85 1023.1
20260507122349 17 80 0.0 0.9 0.00 0.00 0.00 85 1023.2
20260507121845 17 86 0.0 0.9 0.00 0.00 0.00 84 1023.4
20260507121340 17 110 0.0 0.0 0.00 0.00 0.00 83 1023.3
20260507120837 19 87 0.9 0.9 0.00 0.00 0.00 83 1023.3
20260507120334 18 100 0.0 0.9 0.00 0.00 0.00 81 1023.3
20260507115830 20 112 0.0 0.0 0.00 0.00 0.00 81 1023.3
20260507115326 20 81 0.0 0.9 0.00 0.00 0.00 81 1023.4
20260507114822 19 44 0.9 2.6 0.00 0.00 0.00 82 1023.4
20260507114319 18 93 0.9 1.7 0.00 0.00 0.00 84 1023.3
20260507113817 18 72 0.9 0.9 0.00 0.00 0.00 81 1023.2
20260507113313 18 93 0.0 0.9 0.00 0.00 0.00 82 1023.2
20260507112811 19 115 0.0 0.0 0.00 0.00 0.00 80 1023.2
20260507112308 20 118 0.0 0.0 0.00 0.00 0.00 80 1022.9
20260507111806 20 109 0.0 0.0 0.00 0.00 0.00 80 1022.8
20260507111302 20 90 0.0 0.0 0.00 0.00 0.00 80 1022.8
20260507110758 20 102 0.0 0.0 0.00 0.00 0.00 79 1022.8
20260507110254 21 117 0.0 0.0 0.00 0.00 0.00 77 1022.7
20260507105752 21 101 0.0 0.9 0.00 0.00 0.00 76 1022.8
20260507105247 21 93 0.0 0.9 0.00 0.00 0.00 78 1022.8
20260507104745 20 62 0.0 0.0 0.00 0.00 0.00 81 1022.7
20260507104236 19 81 0.0 0.0 0.00 0.00 0.00 81 1022.7
20260507103732 20 103 0.0 0.0 0.00 0.00 0.00 80 1022.7
20260507103229 20 109 0.0 0.0 0.00 0.00 0.00 80 1022.7
20260507102725 20 109 0.0 0.0 0.00 0.00 0.00 80 1022.8
20260507102221 20 100 0.0 0.0 0.00 0.00 0.00 80 1022.6
20260507101717 21 110 0.0 0.0 0.00 0.00 0.00 78 1022.6
20260507101213 20 132 0.0 0.0 0.00 0.00 0.00 80 1022.6
20260507100710 20 95 0.0 0.0 0.00 0.00 0.00 79 1022.5
20260507100208 21 105 0.0 0.0 0.00 0.00 0.00 79 1022.3
20260507095707 21 113 0.0 0.0 0.00 0.00 0.00 77 1022.5
20260507095203 23 81 0.9 0.9 0.00 0.00 0.00 74 1022.3
20260507094700 22 100 0.0 0.0 0.00 0.00 0.00 76 1022.3
20260507094156 22 105 0.0 0.0 0.00 0.00 0.00 76 1022.3
20260507093653 24 111 0.0 0.0 0.00 0.00 0.00 72 1022.3
20260507093152 22 79 0.0 0.9 0.00 0.00 0.00 75 1022.3
20260507092649 21 95 0.0 0.9 0.00 0.00 0.00 77 1022.3
20260507092146 24 104 0.0 0.0 0.00 0.00 0.00 72 1022.3
20260507091642 23 99 0.0 0.9 0.00 0.00 0.00 74 1022.2
20260507091138 21 99 0.0 1.7 0.00 0.00 0.00 77 1022.2
20260507090634 22 97 0.0 0.0 0.00 0.00 0.00 76 1022.3
20260507090131 23 106 0.0 0.0 0.00 0.00 0.00 74 1022.3
20260507085628 24 107 0.0 0.0 0.00 0.00 0.00 74 1022.5
20260507085124 23 81 0.0 0.0 0.00 0.00 0.00 75 1022.5
20260507084621 22 94 0.0 0.0 0.00 0.00 0.00 77 1022.6
20260507084118 22 97 0.0 0.0 0.00 0.00 0.00 77 1022.3
20260507083615 23 118 0.0 0.0 0.00 0.00 0.00 74 1022.6
20260507083112 23 103 0.0 0.0 0.00 0.00 0.00 76 1022.6
20260507082607 23 73 0.9 0.9 0.00 0.00 0.00 77 1022.3
20260507082104 23 120 0.0 0.0 0.00 0.00 0.00 75 1022.5
20260507081600 23 105 0.0 0.0 0.00 0.00 0.00 75 1022.6
20260507081057 23 90 0.0 0.9 0.00 0.00 0.00 75 1022.5
20260507080553 24 105 0.0 0.0 0.00 0.00 0.00 74 1022.5
20260507080050 25 80 0.0 0.0 0.00 0.00 0.00 71 1022.6
20260507075545 24 111 0.0 0.0 0.00 0.00 0.00 73 1022.6
20260507075041 24 97 0.0 0.0 0.00 0.00 0.00 71 1022.7
20260507074538 25 113 0.0 0.0 0.00 0.00 0.00 71 1022.6
20260507074032 26 106 0.0 0.9 0.00 0.00 0.00 69 1022.6
20260507073527 27 81 0.9 1.7 0.00 0.00 0.00 65 1022.6
20260507073024 26 152 0.0 0.9 0.00 0.00 0.00 68 1022.3
20260507072522 25 78 0.9 0.9 0.00 0.00 0.00 71 1022.6
20260507072019 26 92 0.0 0.0 0.00 0.00 0.00 69 1022.5
20260507071516 27 100 0.9 0.9 0.00 0.00 0.00 67 1022.6
20260507071012 26 109 0.0 0.9 0.00 0.00 0.00 69 1022.2
20260507070510 25 91 0.9 0.9 0.00 0.00 0.00 72 1022.3
20260507070010 26 112 0.0 0.0 0.00 0.00 0.00 70 1022.2
20260507065503 26 114 0.0 0.0 0.00 0.00 0.00 70 1022.1
20260507065000 26 98 0.0 0.9 0.00 0.00 0.00 71 1022.0
20260507064458 26 73 0.0 0.0 0.00 0.00 0.00 71 1022.2
20260507063956 25 112 0.0 0.0 0.00 0.00 0.00 72 1022.3
20260507063452 26 87 0.0 0.0 0.00 0.00 0.00 71 1022.3
20260507062950 25 108 0.0 0.0 0.00 0.00 0.00 71 1022.2
20260507062447 25 96 0.0 0.0 0.00 0.00 0.00 72 1022.1
20260507061944 25 112 0.0 0.0 0.00 0.00 0.00 71 1022.1
20260507061442 25 58 0.9 1.7 0.00 0.00 0.00 70 1022.2
20260507060940 25 89 0.0 0.0 0.00 0.00 0.00 70 1022.0
20260507060437 26 91 0.9 0.9 0.00 0.00 0.00 69 1021.8
20260507055933 26 112 0.0 0.9 0.00 0.00 0.00 69 1022.0
20260507055429 27 70 0.9 1.7 0.00 0.00 0.00 67 1021.8
20260507054926 26 101 0.0 0.9 0.00 0.00 0.00 68 1021.8
20260507054422 26 80 0.0 0.9 0.00 0.00 0.00 69 1021.7
20260507053919 28 75 0.9 1.7 0.00 0.00 0.00 67 1021.7
20260507053417 27 80 0.9 0.9 0.00 0.00 0.00 65 1021.7
20260507052915 27 49 0.9 1.7 0.00 0.00 0.00 67 1021.5
20260507052412 28 111 0.0 0.9 0.00 0.00 0.00 65 1021.5
20260507051903 30 95 0.9 0.9 0.00 0.00 0.00 62 1021.6
20260507051401 30 101 0.0 0.9 0.00 0.00 0.00 59 1021.5
20260507050858 29 70 0.0 0.9 0.00 0.00 0.00 63 1021.6
20260507050354 30 108 0.0 0.0 0.00 0.00 0.00 63 1021.2
20260507045851 30 120 0.0 0.0 0.00 0.00 0.00 59 1021.5
20260507045347 30 102 0.0 0.0 0.00 0.00 0.00 61 1021.3
20260507044844 29 104 0.0 0.0 0.00 0.00 0.00 62 1021.2
20260507044340 29 88 0.0 0.0 0.00 0.00 0.00 61 1021.2